Wind_Speed
52 48 48 42 43 38 33 33 31 27 27 26 28 31 34 41 41 40 41 42 40 36 34 33 33 30 33 39 50 61 69 80 88 94 97 100 101 104 104 103 101 98 93 90 85 81 75 71 72 73 72 72 72 69
52 47 46 38 41 40 34 32 31 25 25 26 26 29 32 36 37 38 38 37 36 38 41 39 34 33 30 27 31 43 57 64 69 77 85 93 99 101 99 98 95 92 85 75 68 67 67 69 69 69 69 66 59 56
50 45 42 39 39 41 35 32 30 26 25 25 27 28 31 33 37 37 37 37 37 37 38 36 36 33 32 32 30 28 33 46 56 62 67 72 76 81 85 87 87 84 73 63 65 66 66 66 64 62 57 52 55 55
46 43 40 44 44 41 35 31 30 27 23 23 26 28 28 30 31 34 36 38 37 34 34 33 34 39 37 33 33 30 27 30 41 51 57 60 62 62 63 65 66 63 62 63 64 64 63 59 59 55 54 57 55 56
51 48 45 47 47 42 35 32 31 29 29 28 23 26 27 29 31 33 35 34 37 37 37 38 36 35 34 39 39 35 32 32 33 37 45 53 55 52 54 55 57 62 64 65 64 64 62 59 57 54 56 56 56 58
54 49 48 47 45 41 34 32 33 29 29 27 24 24 26 28 30 32 32 35 35 36 36 34 35 38 41 42 41 43 35 34 32 31 33 41 49 49 51 54 55 60 63 63 63 61 61 58 57 57 58 58 59 59
54 51 49 48 44 39 32 31 33 28 28 26 23 23 26 25 26 30 31 34 35 36 36 38 38 42 43 42 42 41 43 37 35 34 31 28 33 46 49 53 56 59 60 61 61 61 58 59 61 60 59 61 59 58
53 50 44 39 35 33 31 32 32 28 27 27 25 23 25 26 26 27 31 34 36 36 35 35 36 36 35 36 40 41 40 38 37 35 36 33 28 32 47 56 55 59 61 61 62 59 59 62 63 62 61 60 57 54
42 39 34 31 31 32 31 32 32 30 27 26 25 25 25 26 25 27 25 31 37 35 36 36 36 36 33 31 35 41 42 42 37 38 36 37 33 31 37 46 56 60 60 60 57 58 62 61 57 60 60 58 56 59
33 30 28 30 31 32 31 31 32 30 28 27 26 26 25 25 24 25 24 22 26 34 38 36 37 35 34 32 31 36 43 45 45 38 38 37 41 37 38 39 41 47 51 48 45 51 53 54 55 56 58 59 61 64
30 29 30 30 31 31 31 31 32 31 30 29 27 27 27 27 27 27 25 27 26 24 28 31 33 33 36 36 34 33 36 45 49 46 41 40 42 42 46 44 44 42 40 43 49 52 52 50 53 57 61 63 66 69
26 28 30 30 29 31 32 31 32 31 30 30 30 28 28 29 29 30 29 29 31 28 25 26 31 34 37 38 37 37 36 39 45 50 50 48 45 46 43 45 48 48 48 48 48 48 49 49 56 62 66 65 66 66
24 28 30 30 28 30 30 30 30 31 31 31 31 30 30 31 31 31 31 31 30 29 31 30 30 32 36 39 41 42 42 44 45 46 51 56 53 50 46 47 45 43 45 46 48 51 54 57 57 60 63 65 66 72
24 28 31 29 28 28 27 27 29 31 33 32 32 31 31 32 32 32 33 32 31 30 32 34 33 33 33 35 36 38 38 39 43 46 47 49 55 57 55 51 47 44 47 53 55 51 51 55 60 63 68 71 73 76
25 26 28 27 28 27 28 30 31 32 33 35 35 34 32 33 32 33 31 32 33 35 38 36 34 33 33 33 34 34 34 36 39 40 40 42 49 52 56 58 54 52 52 51 53 55 56 59 65 70 72 72 74 75
24 23 25 28 29 28 30 33 34 33 36 38 37 33 32 33 33 33 34 34 34 36 37 35 33 32 32 31 33 32 35 37 36 35 38 43 43 43 44 44 46 50 54 55 56 57 60 64 68 67 67 68 67 70
20 21 23 24 25 29 32 33 35 37 35 34 31 31 32 34 33 31 30 32 34 37 38 36 32 31 33 32 33 30 29 25 23 21 24 29 33 36 38 41 42 41 41 45 52 55 56 55 56 58 60 63 68 67
20 22 23 26 26 27 30 33 33 34 34 31 31 33 35 34 33 32 33 34 37 38 37 38 34 34 31 28 28 27 21 16 16 19 17 19 20 21 22 25 29 34 40 43 43 45 47 50 54 57 62 62 57 48
27 30 29 26 27 30 34 33 32 33 34 35 35 34 37 37 36 37 37 39 38 36 39 39 36 32 27 23 24 21 16 16 18 18 19 19 19 21 25 28 30 32 34 36 39 44 49 52 57 58 55 47 42 38
26 23 25 29 30 30 31 31 31 34 35 36 38 40 40 40 41 41 41 41 43 43 43 41 36 28 25 23 22 20 19 16 14 13 13 14 17 18 21 24 25 28 34 37 42 47 52 54 51 44 40 36 31 30
16 19 23 24 26 28 31 34 37 40 41 40 40 43 42 44 46 47 47 46 46 49 47 44 34 28 24 23 20 23 21 21 18 17 15 15 16 17 20 24 28 31 35 41 46 49 47 41 36 31 31 29 27 22
18 20 23 24 27 29 31 34 38 42 45 46 50 53 54 55 57 58 57 56 53 49 42 33 31 25 24 22 21 27 26 22 19 16 14 15 16 19 22 27 29 32 38 44 43 38 33 29 28 26 25 24 22 19
21 24 26 29 32 36 41 45 48 53 56 57 56 54 54 51 49 46 43 39 36 34 30 28 26 23 22 21 24 23 22 20 16 12 13 15 19 20 23 26 31 37 41 36 30 26 24 23 22 21 20 18 15 17
25 28 34 39 43 47 50 50 48 45 42 39 37 37 36 35 34 32 29 29 31 27 26 25 23 21 23 24 24 20 18 17 14 13 15 16 19 23 23 25 34 38 32 27 23 22 20 20 20 18 13 12 13 14
34 34 36 40 40 39 35 31 29 28 29 27 25 24 22 21 21 21 23 25 27 26 24 24 22 22 24 24 22 18 18 16 15 16 17 20 20 18 21 28 33 26 21 21 21 19 20 19 16 13 10 10 8 9
36 37 37 35 29 25 23 22 20 18 16 14 11 10 9 10 13 17 20 22 25 25 25 23 23 26 25 22 18 14 13 12 14 16 15 15 18 21 26 29 23 16 14 15 16 16 17 16 15 13 7 5 5 5
32 32 26 20 19 19 15 12 10 7 5 3 4 5 5 9 13 16 17 20 22 24 23 26 28 27 22 17 13 13 12 12 13 13 14 16 21 22 26 28 17 13 12 12 13 13 10 9 8 5 4 4 4 6
25 17 12 13 12 10 8 9 9 7 6 7 9 10 10 11 13 16 20 22 22 22 27 29 26 21 17 14 13 12 12 12 13 13 13 19 20 21 27 21 12 9 9 10 11 12 9 8 12 12 9 8 9 11
10 7 7 6 4 5 7 9 10 10 9 8 7 7 9 11 12 14 17 19 22 28 29 26 21 17 14 12 12 11 12 12 14 16 20 19 21 24 26 17 10 7 8 7 8 8 5 4 8 11 15 17 15 13
5 4 0 3 3 4 5 7 9 9 9 8 7 7 8 10 14 18 22 24 26 25 23 19 16 15 15 14 10 13 16 14 17 19 17 19 21 21 16 10 12 13 12 8 6 9 8 4 4 6 9 12 15 16
2 2 1 2 1 2 3 5 6 6 6 5 5 5 6 9 13 17 21 21 20 17 16 14 13 13 12 12 14 17 16 14 13 15 19 25 18 14 14 9 8 10 14 12 10 9 11 11 8 4 3 6 9 11
4 4 3 3 2 2 2 2 3 3 3 2 3 5 7 8 10 13 14 15 16 15 14 13 13 13 15 16 16 16 14 14 17 17 18 15 19 18 18 15 13 12 12 15 16 13 12 13 13 13 9 9 7 8
6 5 4 2 2 3 4 5 5 5 6 7 7 7 8 10 13 14 15 14 14 14 14 15 15 15 18 17 15 15 17 21 21 20 25 23 21 17 16 16 17 14 13 14 14 14 15 15 13 14 16 16 14 14
Wind_Direction
315 311 316 318 312 306 300 302 303 292 287 289 268 255 250 245 248 249 253 257 263 254 258 262 264 266 259 254 248 246 246 245 244 245 246 247 249 251 253 254 256 260 263 266 270 272 271 267 270 275 277 276 275 276
312 312 313 312 313 311 298 297 302 286 288 281 280 262 254 247 250 251 251 254 251 250 255 265 264 263 268 267 262 256 251 249 248 247 246 246 246 248 251 253 256 259 263 266 263 260 261 265 270 276 276 274 274 275
308 308 307 307 309 308 298 293 297 277 285 280 278 274 260 254 249 251 254 254 255 256 258 262 254 261 267 268 275 278 265 254 251 250 249 248 249 251 253 255 256 258 260 258 255 257 260 266 273 273 269 273 278 276
306 306 303 300 308 303 295 288 294 275 280 286 280 277 271 257 254 252 254 255 253 253 257 263 261 257 259 267 269 275 279 266 255 250 250 251 250 249 250 251 251 251 247 248 252 256 262 269 273 272 267 270 270 271
301 297 298 296 299 299 288 283 287 278 272 277 284 276 278 266 257 254 255 255 252 254 257 262 261 260 267 263 264 270 273 277 265 257 250 247 248 247 246 245 243 243 242 245 251 258 265 267 271 270 273 275 274 276
296 294 291 292 294 292 279 278 279 276 274 274 278 280 277 275 268 259 254 252 256 259 261 262 260 263 262 266 261 259 266 271 266 262 258 251 245 243 242 243 241 242 244 248 252 256 259 263 267 270 274 274 277 277
294 290 287 286 288 281 271 269 276 276 269 272 271 284 278 281 273 259 259 256 255 257 259 261 267 271 269 260 257 253 259 264 269 254 252 257 254 244 242 242 243 244 246 250 252 254 259 260 262 269 271 274 274 272
287 282 279 279 276 267 264 263 272 274 267 269 272 279 283 278 280 271 264 261 260 260 260 263 275 278 276 262 250 246 251 259 261 265 257 254 255 252 245 243 244 246 248 250 252 256 260 264 266 268 271 271 273 272
284 273 265 263 260 254 256 260 267 271 266 268 270 276 280 277 280 275 279 268 258 260 261 263 274 274 284 271 256 246 245 250 258 262 263 255 253 254 254 249 246 247 248 251 255 258 262 266 265 268 269 270 271 276
276 260 249 246 248 245 248 256 264 266 262 263 268 272 278 279 278 284 286 291 275 259 257 263 264 272 277 274 267 255 247 247 250 255 256 259 253 251 252 250 251 249 252 256 255 257 260 264 265 265 267 270 278 280
264 248 240 239 239 241 243 253 262 262 258 262 264 267 275 278 274 280 284 288 292 285 267 261 266 266 270 272 271 266 256 249 248 248 250 256 257 254 248 248 250 253 254 255 255 257 260 262 264 267 272 276 281 283
253 244 237 235 236 235 240 250 259 259 259 260 264 267 270 273 273 279 276 282 288 290 285 276 269 267 267 268 270 268 266 260 253 247 244 247 252 255 256 256 256 256 256 254 255 259 260 266 271 274 278 279 281 284
242 236 236 234 234 234 243 252 257 257 256 259 264 268 269 273 277 277 283 283 283 282 284 284 283 277 271 270 269 269 267 262 258 253 247 243 246 250 253 256 256 255 252 256 260 262 267 271 272 275 280 282 285 287
238 240 242 237 234 238 245 250 256 255 257 260 261 269 273 273 278 277 282 281 283 288 292 287 283 284 281 276 274 273 270 265 260 257 253 249 247 247 250 251 254 257 260 260 265 270 272 272 275 278 282 289 289 288
241 242 245 239 234 237 239 245 254 258 259 263 262 268 272 272 273 274 278 280 287 292 299 297 290 287 284 278 277 275 272 268 265 262 256 251 248 249 250 252 256 261 262 263 265 271 272 273 279 285 288 288 288 289
243 246 251 247 240 244 241 247 249 257 264 263 264 267 267 267 273 272 273 281 287 294 301 301 292 285 282 280 280 279 280 275 267 259 252 249 248 250 253 255 257 259 262 265 269 272 275 278 282 284 285 288 291 294
246 245 248 249 248 248 248 250 255 268 266 260 264 266 265 265 268 270 276 285 286 292 296 307 294 286 285 281 281 281 279 262 255 250 246 249 251 253 253 256 261 265 267 266 269 274 276 279 283 285 289 293 295 297
246 248 256 259 257 258 261 270 268 263 260 259 263 263 261 260 262 262 277 283 289 292 298 307 297 286 287 284 285 286 262 241 237 241 231 227 234 237 245 253 257 261 264 269 275 280 282 284 288 293 296 298 298 299
260 257 260 258 258 265 268 267 264 263 260 261 264 262 261 262 263 266 273 282 285 285 298 304 291 287 286 279 282 268 238 221 223 225 222 227 237 246 253 258 264 271 277 280 283 286 288 291 295 298 298 297 297 302
264 260 261 264 265 263 263 263 265 267 268 268 267 262 258 260 267 273 275 278 282 280 290 295 293 281 273 273 268 239 220 217 219 224 230 240 250 254 264 270 274 278 283 287 289 291 295 298 299 298 293 293 298 304
258 259 263 265 261 260 263 265 266 266 265 266 267 269 270 270 270 271 272 273 275 279 286 290 276 268 262 264 242 215 210 223 233 237 245 254 257 266 273 278 282 285 290 295 298 300 301 300 298 295 291 293 295 294
267 276 274 270 269 269 269 272 274 275 275 274 272 272 272 272 272 271 270 272 276 277 273 262 258 253 253 248 224 216 220 221 231 237 241 253 265 273 280 284 290 297 299 301 303 302 301 298 296 295 293 291 286 275
287 277 274 274 275 280 279 279 281 281 280 278 278 276 274 272 270 268 265 260 254 251 247 245 246 239 240 225 212 216 217 215 218 228 250 262 272 276 282 289 301 302 306 307 303 299 301 302 304 305 300 292 279 267
296 290 287 287 287 286 287 287 286 286 284 282 279 275 273 270 265 258 249 238 230 225 227 230 227 230 221 210 195 196 205 214 223 241 256 263 269 276 294 309 308 312 313 309 305 305 308 309 310 308 307 298 288 276
307 302 296 296 298 298 297 294 292 290 289 285 279 273 267 258 247 234 223 218 213 208 212 212 214 205 196 189 193 198 208 219 234 247 257 258 273 301 311 311 316 320 321 316 313 314 315 313 310 311 319 306 296 292
303 302 303 306 307 310 312 309 306 303 302 298 285 271 252 231 211 201 198 200 199 199 200 202 197 189 187 192 192 203 217 233 253 261 268 286 295 299 313 322 323 314 319 324 326 324 321 326 316 299 293 316 335 356
304 308 308 313 320 324 326 326 330 339 356 33 80 98 131 154 166 173 180 184 188 188 192 189 186 185 189 194 196 206 221 237 248 262 275 291 298 307 321 328 322 325 327 328 325 322 328 335 332 330 9 16 31 45
309 305 311 323 331 343 9 27 34 42 65 83 92 103 120 140 154 163 168 173 180 186 182 182 184 188 193 197 204 218 232 248 251 256 277 290 295 315 324 326 323 328 327 333 334 329 342 24 39 33 27 39 41 47
300 305 324 347 22 46 54 58 60 68 79 92 107 130 143 153 164 172 174 174 175 175 177 181 187 191 199 207 213 222 236 255 249 249 283 296 310 319 325 323 316 306 305 311 331 306 326 30 37 30 31 33 35 47
281 302 255 126 104 85 72 65 66 70 72 78 89 108 127 146 154 158 161 164 171 176 178 181 189 200 204 207 224 238 249 253 260 278 289 302 309 321 322 319 306 300 301 299 276 247 271 275 7 17 12 19 27 29
219 204 186 171 129 98 102 96 81 75 79 93 106 124 147 158 160 160 163 171 179 186 189 197 199 204 211 212 227 243 252 256 264 276 291 303 310 337 328 335 317 285 280 287 265 257 263 272 261 284 317 344 12 40
169 166 159 161 164 174 167 163 157 152 141 118 118 146 170 178 173 173 174 178 185 192 193 201 209 211 224 233 238 247 257 263 268 288 307 305 338 339 344 345 327 314 298 287 284 281 272 265 263 257 276 281 297 312
167 157 142 105 23 326 293 269 243 215 203 200 199 191 183 185 194 196 194 195 198 201 203 209 220 236 244 244 247 261 272 278 286 290 303 317 326 318 321 323 317 311 305 294 280 274 271 270 273 268 259 263 270 278
Height
10785 10779 10773 10765 10760 10755 10751 10747 10743 10740 10737 10734 10733 10733 10733 10734 10735 10736 10737 10738 10739 10740 10739 10738 10738 10737 10735 10735 10734 10733 10736 10743 10749 10756 10762 10767 10770 10775 10787 10789 10793 10797 10804 10808 10807 10804 10803 10798 10794 10794 10793 10790 10789 10787
10770 10765 10760 10754 10748 10744 10739 10736 10733 10730 10727 10725 10723 10722 10722 10722 10722 10723 10724 10725 10726 10727 10727 10727 10727 10727 10726 10724 10720 10720 10722 10724 10730 10734 10737 10740 10747 10751 10760 10767 10774 10780 10785 10787 10788 10786 10782 10780 10779 10777 10776 10774 10774 10775
10754 10750 10745 10741 10737 10732 10728 10725 10722 10719 10717 10715 10713 10711 10710 10710 10710 10711 10712 10713 10714 10714 10714 10715 10716 10715 10715 10713 10711 10710 10710 10710 10711 10713 10715 10720 10726 10732 10739 10748 10756 10762 10767 10768 10768 10766 10765 10765 10766 10764 10763 10762 10760 10757
10737 10734 10730 10727 10723 10719 10716 10714 10711 10709 10707 10705 10702 10700 10698 10697 10698 10699 10700 10700 10701 10702 10702 10703 10703 10703 10703 10702 10701 10700 10699 10697 10696 10696 10698 10702 10708 10715 10721 10728 10735 10742 10747 10748 10748 10747 10749 10751 10751 10753 10751 10747 10745 10744
10720 10717 10714 10711 10708 10704 10702 10701 10700 10698 10696 10695 10692 10690 10688 10688 10688 10688 10688 10689 10689 10690 10691 10691 10692 10692 10691 10690 10690 10690 10689 10686 10685 10684 10685 10688 10692 10700 10705 10711 10719 10722 10728 10730 10730 10732 10736 10737 10739 10737 10734 10732 10729 10727
10699 10697 10696 10694 10692 10689 10688 10688 10687 10686 10685 10684 10682 10680 10678 10678 10676 10675 10676 10677 10678 10678 10678 10678 10679 10678 10679 10679 10678 10678 10679 10678 10676 10675 10674 10676 10680 10687 10691 10696 10702 10704 10708 10713 10717 10719 10719 10724 10726 10723 10719 10716 10715 10712
10677 10675 10675 10674 10674 10673 10673 10674 10675 10674 10673 10673 10672 10670 10668 10667 10665 10665 10665 10666 10667 10667 10667 10667 10666 10665 10664 10665 10665 10667 10668 10668 10667 10666 10665 10666 10670 10675 10678 10681 10684 10688 10691 10695 10700 10703 10709 10711 10709 10708 10704 10703 10701 10697
10651 10651 10654 10655 10656 10657 10659 10661 10662 10663 10662 10662 10662 10660 10658 10657 10655 10655 10654 10654 10655 10656 10656 10655 10654 10652 10650 10650 10652 10653 10655 10656 10657 10658 10658 10660 10662 10663 10664 10664 10669 10672 10676 10679 10684 10691 10692 10690 10691 10690 10687 10686 10686 10684
10626 10629 10632 10636 10639 10642 10645 10648 10650 10651 10651 10651 10652 10650 10649 10648 10646 10646 10645 10643 10643 10643 10643 10645 10642 10641 10638 10637 10638 10641 10644 10645 10647 10647 10649 10652 10653 10653 10650 10651 10654 10659 10662 10664 10672 10676 10674 10675 10674 10671 10668 10667 10667 10666
10608 10611 10615 10619 10623 10627 10631 10635 10637 10639 10640 10640 10641 10641 10640 10639 10637 10636 10635 10633 10631 10631 10632 10634 10631 10630 10628 10628 10627 10629 10630 10633 10634 10637 10640 10640 10642 10642 10640 10640 10641 10644 10648 10656 10660 10659 10658 10659 10658 10654 10653 10653 10651 10646
10594 10596 10601 10605 10609 10614 10619 10622 10625 10626 10628 10630 10630 10630 10630 10629 10628 10628 10626 10624 10623 10623 10622 10623 10622 10621 10617 10617 10617 10617 10618 10620 10621 10626 10628 10630 10628 10629 10629 10630 10632 10637 10642 10645 10644 10645 10646 10645 10643 10640 10637 10637 10634 10629
10581 10585 10588 10592 10597 10602 10606 10610 10613 10615 10617 10618 10619 10620 10620 10619 10619 10618 10617 10616 10615 10613 10612 10611 10610 10610 10608 10607 10607 10605 10606 10605 10605 10610 10614 10615 10615 10616 10618 10620 10623 10628 10630 10631 10632 10633 10634 10634 10630 10625 10622 10622 10617 10612
10571 10574 10578 10582 10587 10591 10595 10599 10602 10604 10606 10607 10608 10609 10609 10609 10608 10607 10607 10606 10605 10604 10602 10602 10599 10597 10595 10595 10594 10593 10592 10590 10591 10593 10595 10598 10603 10605 10608 10611 10612 10616 10619 10620 10620 10620 10621 10620 10615 10609 10604 10603 10601 10593
10563 10566 10569 10574 10578 10582 10586 10588 10591 10592 10594 10596 10597 10598 10598 10598 10597 10597 10596 10596 10595 10594 10592 10589 10587 10585 10583 10581 10580 10579 10577 10577 10575 10577 10582 10586 10589 10591 10594 10597 10600 10604 10605 10604 10606 10607 10605 10602 10598 10592 10588 10585 10580 10573
10555 10558 10561 10566 10570 10573 10575 10577 10580 10581 10583 10584 10585 10587 10588 10586 10586 10586 10586 10585 10585 10582 10580 10576 10574 10572 10570 10568 10567 10566 10565 10563 10563 10565 10567 10571 10572 10574 10579 10585 10587 10589 10591 10592 10592 10591 10588 10585 10581 10576 10571 10566 10559 10553
10548 10551 10554 10558 10561 10564 10566 10568 10569 10571 10572 10573 10574 10577 10576 10575 10575 10576 10576 10575 10573 10572 10569 10565 10562 10560 10559 10557 10555 10554 10553 10549 10549 10550 10554 10556 10558 10564 10569 10571 10573 10575 10577 10578 10577 10575 10574 10571 10566 10560 10553 10547 10541 10533
10541 10544 10546 10549 10551 10554 10555 10557 10558 10559 10559 10561 10565 10565 10564 10563 10565 10565 10565 10564 10563 10561 10559 10555 10552 10549 10547 10546 10544 10544 10541 10539 10538 10540 10543 10546 10550 10554 10557 10559 10560 10562 10564 10563 10562 10562 10558 10554 10549 10543 10539 10532 10523 10515
10535 10536 10538 10541 10543 10544 10545 10546 10546 10546 10548 10553 10553 10554 10551 10552 10552 10554 10554 10552 10551 10550 10548 10545 10542 10539 10538 10536 10535 10533 10531 10531 10533 10535 10537 10540 10544 10546 10548 10550 10552 10553 10552 10551 10550 10548 10543 10539 10534 10529 10522 10515 10506 10499
10526 10528 10530 10531 10533 10533 10533 10534 10535 10535 10538 10539 10540 10540 10538 10538 10540 10541 10541 10541 10540 10539 10538 10536 10532 10531 10530 10528 10526 10525 10525 10527 10529 10532 10534 10537 10540 10542 10543 10543 10544 10544 10542 10540 10538 10534 10529 10525 10519 10513 10504 10499 10494 10489
10518 10519 10521 10522 10522 10522 10522 10523 10524 10523 10524 10525 10524 10524 10525 10528 10527 10526 10527 10528 10528 10527 10526 10525 10524 10523 10521 10520 10519 10519 10521 10523 10526 10529 10532 10534 10535 10536 10536 10536 10535 10534 10531 10530 10526 10521 10515 10510 10503 10499 10492 10489 10486 10481
10511 10512 10512 10513 10513 10514 10514 10513 10512 10510 10510 10510 10509 10507 10509 10511 10511 10511 10512 10513 10512 10513 10515 10515 10514 10513 10512 10512 10513 10515 10517 10520 10522 10526 10528 10530 10530 10530 10530 10528 10527 10526 10523 10518 10512 10505 10500 10495 10491 10488 10484 10481 10478 10476
10505 10505 10505 10504 10504 10503 10502 10500 10497 10495 10494 10494 10491 10488 10489 10490 10490 10490 10492 10495 10498 10500 10499 10500 10503 10504 10504 10506 10507 10511 10514 10517 10519 10522 10524 10524 10524 10525 10524 10521 10519 10516 10512 10506 10500 10492 10488 10485 10481 10478 10475 10472 10470 10470
10497 10496 10495 10494 10492 10490 10488 10484 10481 10477 10473 10470 10468 10466 10464 10464 10465 10466 10470 10476 10479 10481 10485 10490 10493 10494 10496 10499 10502 10506 10509 10513 10516 10518 10519 10519 10518 10518 10517 10514 10510 10505 10500 10493 10489 10484 10481 10477 10473 10470 10466 10464 10463 10464
10489 10488 10485 10482 10479 10474 10470 10465 10460 10456 10452 10450 10448 10446 10445 10446 10447 10449 10454 10459 10465 10471 10477 10481 10484 10487 10490 10493 10498 10502 10506 10509 10511 10513 10514 10513 10512 10511 10510 10506 10501 10494 10487 10483 10481 10478 10475 10472 10468 10465 10461 10459 10458 10458
10480 10477 10473 10469 10464 10458 10453 10449 10446 10442 10439 10436 10434 10432 10432 10433 10435 10439 10444 10450 10456 10463 10468 10473 10477 10481 10486 10491 10495 10499 10502 10505 10507 10508 10509 10508 10507 10505 10503 10499 10492 10486 10482 10479 10476 10474 10471 10468 10465 10462 10459 10457 10455 10454
10470 10467 10462 10457 10452 10448 10444 10440 10436 10433 10430 10428 10427 10426 10426 10427 10430 10434 10440 10446 10452 10458 10464 10469 10474 10480 10484 10489 10493 10497 10500 10501 10503 10503 10504 10502 10500 10499 10496 10491 10484 10480 10478 10476 10473 10470 10468 10465 10462 10459 10457 10454 10452 10451
10462 10457 10453 10450 10447 10443 10439 10436 10433 10431 10429 10427 10425 10425 10426 10428 10432 10436 10441 10445 10450 10456 10461 10466 10471 10477 10483 10489 10493 10495 10496 10497 10498 10498 10498 10498 10496 10494 10489 10484 10480 10477 10475 10474 10471 10469 10466 10464 10462 10459 10455 10453 10450 10447
10453 10451 10449 10447 10444 10441 10438 10436 10434 10432 10431 10430 10430 10431 10433 10434 10437 10439 10442 10446 10450 10455 10460 10466 10472 10478 10482 10486 10489 10491 10492 10493 10493 10493 10494 10493 10491 10488 10485 10481 10476 10474 10473 10471 10470 10468 10466 10463 10460 10459 10455 10451 10449 10447
10448 10447 10446 10445 10443 10441 10439 10438 10437 10435 10435 10434 10434 10435 10436 10438 10440 10442 10445 10448 10451 10456 10462 10468 10473 10477 10480 10483 10485 10486 10488 10489 10489 10490 10489 10487 10485 10483 10481 10476 10473 10471 10471 10470 10469 10468 10466 10463 10462 10460 10458 10455 10452 10448
10445 10445 10445 10444 10443 10442 10442 10440 10440 10439 10438 10438 10438 10439 10440 10441 10442 10444 10448 10451 10455 10459 10465 10469 10473 10476 10478 10480 10482 10483 10483 10484 10485 10484 10482 10480 10480 10479 10475 10471 10470 10469 10468 10468 10468 10468 10466 10465 10463 10461 10459 10457 10455 10452
10444 10444 10445 10445 10445 10444 10444 10443 10443 10442 10442 10441 10441 10442 10443 10445 10447 10449 10452 10455 10458 10463 10467 10470 10472 10475 10477 10479 10479 10478 10480 10481 10481 10479 10477 10474 10473 10471 10470 10468 10468 10468 10466 10465 10465 10464 10464 10463 10462 10461 10460 10459 10457 10454
10444 10445 10445 10445 10445 10445 10444 10444 10444 10444 10444 10444 10445 10445 10445 10447 10448 10451 10454 10458 10460 10464 10466 10469 10471 10472 10473 10474 10475 10474 10475 10476 10476 10475 10474 10470 10468 10466 10465 10463 10464 10464 10463 10462 10460 10460 10460 10460 10460 10460 10460 10459 10457 10457
10443 10444 10445 10445 10445 10444 10443 10443 10443 10444 10445 10445 10445 10445 10446 10447 10449 10451 10454 10457 10459 10461 10463 10466 10468 10468 10467 10468 10469 10470 10470 10470 10470 10470 10468 10466 10464 10462 10460 10459 10459 10459 10459 10457 10456 10456 10455 10455 10456 10456 10456 10455 10454 10454